Overview Statistics Trail Chart Weather Telemetry Raw packets
 

This is the latest recevied weather packets stored in our database for station/object NW5W-12. If no packets are shown the sender has not sent any weather packets the latest 10 day(s).

<< 70 71 72 73 74 75 76 >>
Time Temp. Humidity Pressure Rain* Wind** Luminosity Snow
1788197940 22.78° C 49% 1021.2 hPa 0 mm - - -
1788197640 22.22° C 50% 1021.3 hPa 0 mm - - -
1788197340 21.67° C 51% 1021.3 hPa 0 mm - - -
1788197040 21.11° C 55% 1021.3 hPa 0 mm - - -
1788196740 20.56° C 56% 1021.3 hPa 0 mm - - -
1788196439 20.56° C 56% 1021.3 hPa 0 mm - - -
1788196151 20.56° C 56% 1021.2 hPa 0 mm - - -
1788195840 20° C 59% 1021.2 hPa 0 mm - - -
1788195540 19.44° C 57% 1021.2 hPa 0 mm - - -
1788195240 19.44° C 57% 1021.2 hPa 0 mm - - -
1788194940 18.89° C 59% 1021.2 hPa 0 mm - - -
1788194640 18.89° C 58% 1021.2 hPa 0 mm - - -
1788194339 18.89° C 58% 1021.2 hPa 0 mm - - -
1788194040 18.89° C 58% 1021.1 hPa 0 mm - - -
1788193740 18.89° C 58% 1021.1 hPa 0 mm - - -
1788193440 19.44° C 56% 1021 hPa 0 mm - - -
1788193140 20° C 54% 1021 hPa 0 mm - - -
1788192840 20° C 51% 1021 hPa 0 mm - - -
1788192540 20° C 51% 1020.9 hPa 0 mm - - -
1788192239 20° C 53% 1020.9 hPa 0 mm - - -
1788191940 20° C 53% 1020.8 hPa 0 mm - - -
1788191639 19.44° C 52% 1020.8 hPa 0 mm - - -
1788191340 19.44° C 54% 1020.7 hPa 0 mm - - -
1788191040 19.44° C 55% 1020.7 hPa 0 mm - - -
1788190740 18.89° C 54% 1020.6 hPa 0 mm - - -

* Rain since midnight (hover to see other rain measurements)
** Current wind speed in m/s (hover to see current wind gust speed)